When you browse on this site, cookies collect data to enhance your experience and personalize the content and advertising you see.
Visit our Privacy Policy to learn more. By continuing to use the site, you agree to this use of cookies and data.
  • In Latvia
  • List of Countries
  • For 7 days
  • Water Temperature
  • Weather Map
  • Weather Widgets
  • user-avatar
    Login

    Hourly Weather Jezyk

    Today, 19 September, Thursday

    Time Temperature Precipitation Wind Pressure Humidity
    00:00 +6°C° 0 mm 4 mps 747 mmHg 75%
    01:00 +6°C° 0 mm 4 mps 747 mmHg 78%
    02:00 +5°C° 0 mm 3 mps 747 mmHg 78%
    03:00 +5°C° 0 mm 3 mps 747 mmHg 81%
    04:00 +5°C° 0 mm 3 mps 747 mmHg 84%
    05:00 +4°C° 0 mm 3 mps 747 mmHg 87%
    06:00 +5°C° 0.1 mm 4 mps 747 mmHg 86%
    07:00 +6°C° 0.1 mm 4 mps 747 mmHg 85%
    08:00 +7°C° 0.1 mm 4 mps 748 mmHg 84%
    09:00 +8°C° 0 mm 5 mps 748 mmHg 75%
    10:00 +10°C° 0 mm 5 mps 748 mmHg 67%
    11:00 +12°C° 0 mm 5 mps 748 mmHg 58%
    12:00 +13°C° 0 mm 5 mps 748 mmHg 55%
    13:00 +14°C° 0 mm 5 mps 748 mmHg 52%
    14:00 +15°C° 0 mm 5 mps 747 mmHg 48%
    15:00 +14°C° 0.1 mm 5 mps 747 mmHg 51%
    16:00 +14°C° 0.1 mm 4 mps 747 mmHg 53%
    17:00 +13°C° 0.1 mm 4 mps 747 mmHg 56%
    18:00 +11°C° 0.1 mm 4 mps 748 mmHg 64%
    19:00 +10°C° 0.1 mm 3 mps 748 mmHg 72%
    20:00 +8°C° 0.1 mm 3 mps 748 mmHg 80%
    21:00 +7°C° 0.1 mm 3 mps 748 mmHg 82%
    22:00 +7°C° 0.1 mm 3 mps 748 mmHg 85%
    23:00 +7°C° 0.1 mm 3 mps 748 mmHg 88%

    Tomorrow, 20 September, Friday

    Time Temperature Precipitation Wind Pressure Humidity
    00:00 +7°C° 0.3 mm 3 mps 749 mmHg 89%
    01:00 +5°C° 0.3 mm 3 mps 749 mmHg 91%
    02:00 +5°C° 0.3 mm 4 mps 749 mmHg 93%
    03:00 +4°C° 0 mm 3 mps 749 mmHg 93%
    04:00 +4°C° 0 mm 3 mps 749 mmHg 94%
    05:00 +3°C° 0 mm 3 mps 749 mmHg 95%
    06:00 +4°C° 0 mm 3 mps 749 mmHg 93%
    07:00 +5°C° 0 mm 4 mps 749 mmHg 91%
    08:00 +5°C° 0 mm 4 mps 750 mmHg 89%
    09:00 +7°C° 0 mm 4 mps 750 mmHg 80%
    10:00 +10°C° 0 mm 4 mps 750 mmHg 70%
    11:00 +10°C° 0 mm 5 mps 751 mmHg 60%
    12:00 +12°C° 0.1 mm 5 mps 750 mmHg 57%
    13:00 +13°C° 0.1 mm 5 mps 750 mmHg 53%
    14:00 +13°C° 0.1 mm 5 mps 750 mmHg 50%
    15:00 +13°C° 0.1 mm 5 mps 750 mmHg 52%
    16:00 +13°C° 0.1 mm 4 mps 750 mmHg 53%
    17:00 +13°C° 0.1 mm 4 mps 750 mmHg 55%
    18:00 +11°C° 0 mm 3 mps 750 mmHg 61%
    19:00 +9°C° 0 mm 2 mps 750 mmHg 67%
    20:00 +8°C° 0 mm 2 mps 750 mmHg 73%
    21:00 +7°C° 0 mm 2 mps 750 mmHg 75%
    22:00 +7°C° 0 mm 2 mps 750 mmHg 77%
    23:00 +6°C° 0 mm 2 mps 751 mmHg 78%

    Day after tomorrow, 21 September, Saturday

    Time Temperature Precipitation Wind Pressure Humidity
    00:00 +6°C° 0 mm 2 mps 751 mmHg 79%
    01:00 +6°C° 0 mm 2 mps 751 mmHg 80%
    02:00 +6°C° 0 mm 2 mps 750 mmHg 81%
    03:00 +5°C° 0 mm 2 mps 750 mmHg 82%
    04:00 +5°C° 0 mm 2 mps 750 mmHg 83%
    05:00 +5°C° 0 mm 2 mps 750 mmHg 84%
    06:00 +5°C° 0 mm 3 mps 750 mmHg 80%
    07:00 +7°C° 0 mm 3 mps 750 mmHg 76%
    08:00 +8°C° 0 mm 3 mps 750 mmHg 71%
    09:00 +10°C° 0 mm 3 mps 750 mmHg 65%
    10:00 +12°C° 0 mm 4 mps 750 mmHg 58%
    11:00 +14°C° 0 mm 4 mps 750 mmHg 52%
    12:00 +15°C° 0 mm 4 mps 750 mmHg 50%
    13:00 +17°C° 0 mm 4 mps 749 mmHg 48%
    14:00 +18°C° 0 mm 4 mps 749 mmHg 45%
    15:00 +17°C° 0 mm 4 mps 749 mmHg 48%
    16:00 +17°C° 0 mm 3 mps 748 mmHg 50%
    17:00 +17°C° 0 mm 3 mps 748 mmHg 53%
    18:00 +14°C° 0 mm 3 mps 748 mmHg 57%
    19:00 +13°C° 0 mm 2 mps 748 mmHg 61%
    20:00 +12°C° 0 mm 2 mps 748 mmHg 65%
    21:00 +10°C° 0 mm 2 mps 748 mmHg 65%
    22:00 +10°C° 0 mm 3 mps 748 mmHg 65%
    23:00 +9°C° 0 mm 3 mps 748 mmHg 65%

    22 September, Sunday

    Time Temperature Precipitation Wind Pressure Humidity
    00:00 +9°C° 0 mm 3 mps 748 mmHg 65%
    01:00 +9°C° 0 mm 3 mps 748 mmHg 64%
    02:00 +9°C° 0 mm 3 mps 748 mmHg 64%
    03:00 +8°C° 0 mm 2 mps 747 mmHg 65%
    04:00 +8°C° 0 mm 2 mps 747 mmHg 66%
    05:00 +8°C° 0 mm 2 mps 747 mmHg 67%
    06:00 +9°C° 0 mm 2 mps 747 mmHg 65%
    07:00 +10°C° 0 mm 2 mps 747 mmHg 63%
    08:00 +12°C° 0 mm 2 mps 747 mmHg 61%
    09:00 +14°C° 0 mm 2 mps 747 mmHg 55%
    10:00 +16°C° 0 mm 2 mps 747 mmHg 50%
    11:00 +18°C° 0 mm 2 mps 747 mmHg 44%
    12:00 +19°C° 0 mm 2 mps 746 mmHg 42%
    13:00 +20°C° 0 mm 2 mps 746 mmHg 40%
    14:00 +21°C° 0 mm 2 mps 745 mmHg 37%
    15:00 +21°C° 0 mm 2 mps 745 mmHg 41%
    16:00 +20°C° 0 mm 2 mps 744 mmHg 45%
    17:00 +20°C° 0 mm 2 mps 744 mmHg 49%
    18:00 +18°C° 0 mm 2 mps 744 mmHg 53%
    19:00 +16°C° 0 mm 2 mps 744 mmHg 56%
    20:00 +14°C° 0 mm 2 mps 743 mmHg 60%
    21:00 +13°C° 0 mm 2 mps 743 mmHg 62%
    22:00 +13°C° 0 mm 2 mps 743 mmHg 63%
    23:00 +12°C° 0 mm 2 mps 743 mmHg 64%

    23 September, Monday

    Time Temperature Precipitation Wind Pressure Humidity
    00:00 +11°C° 0 mm 3 mps 743 mmHg 61%
    01:00 +12°C° 0 mm 3 mps 743 mmHg 58%
    02:00 +12°C° 0 mm 3 mps 742 mmHg 55%
    03:00 +13°C° 0 mm 3 mps 742 mmHg 59%
    04:00 +13°C° 0 mm 3 mps 742 mmHg 62%
    05:00 +13°C° 0 mm 3 mps 741 mmHg 65%
    06:00 +13°C° 0 mm 3 mps 741 mmHg 70%
    07:00 +13°C° 0 mm 3 mps 741 mmHg 75%
    08:00 +13°C° 0 mm 3 mps 740 mmHg 80%
    09:00 +13°C° 0 mm 3 mps 740 mmHg 80%
    10:00 +14°C° 0 mm 3 mps 740 mmHg 80%
    11:00 +14°C° 0 mm 4 mps 740 mmHg 79%
    12:00 +15°C° 0 mm 4 mps 740 mmHg 76%
    13:00 +17°C° 0 mm 4 mps 739 mmHg 72%
    14:00 +19°C° 0 mm 4 mps 739 mmHg 68%
    15:00 +18°C° 0 mm 4 mps 738 mmHg 69%
    16:00 +18°C° 0 mm 3 mps 738 mmHg 69%
    17:00 +18°C° 0 mm 3 mps 738 mmHg 69%
    18:00 +17°C° 0 mm 3 mps 738 mmHg 72%
    19:00 +15°C° 0 mm 4 mps 738 mmHg 76%
    20:00 +14°C° 0 mm 4 mps 738 mmHg 79%
    21:00 +14°C° 0 mm 4 mps 738 mmHg 79%
    22:00 +13°C° 0 mm 4 mps 737 mmHg 79%
    23:00 +13°C° 0 mm 4 mps 737 mmHg 80%

    24 September, Tuesday

    Time Temperature Precipitation Wind Pressure Humidity
    00:00 +13°C° 0 mm 4 mps 737 mmHg 78%
    01:00 +14°C° 0 mm 4 mps 737 mmHg 76%
    02:00 +14°C° 0 mm 4 mps 737 mmHg 74%
    03:00 +14°C° 0 mm 4 mps 737 mmHg 79%
    04:00 +13°C° 0 mm 4 mps 737 mmHg 85%
    05:00 +12°C° 0 mm 4 mps 737 mmHg 90%
    06:00 +13°C° 0.1 mm 3 mps 737 mmHg 90%
    07:00 +13°C° 0.1 mm 3 mps 737 mmHg 90%
    08:00 +13°C° 0.1 mm 3 mps 737 mmHg 91%
    09:00 +14°C° 0 mm 3 mps 737 mmHg 89%
    10:00 +14°C° 0 mm 3 mps 738 mmHg 88%
    11:00 +14°C° 0 mm 3 mps 738 mmHg 87%
    12:00 +14°C° 0 mm 3 mps 738 mmHg 84%
    13:00 +16°C° 0 mm 3 mps 738 mmHg 82%
    14:00 +16°C° 0 mm 3 mps 738 mmHg 80%
    15:00 +15°C° 0 mm 4 mps 738 mmHg 81%
    16:00 +15°C° 0 mm 4 mps 738 mmHg 83%
    17:00 +15°C° 0 mm 4 mps 738 mmHg 85%
    18:00 +14°C° 0.1 mm 4 mps 738 mmHg 86%
    19:00 +14°C° 0.1 mm 4 mps 739 mmHg 88%
    20:00 +14°C° 0.1 mm 4 mps 739 mmHg 89%
    21:00 +13°C° 0.2 mm 3 mps 739 mmHg 91%
    22:00 +13°C° 0.2 mm 3 mps 739 mmHg 93%
    23:00 +13°C° 0.2 mm 3 mps 739 mmHg 95%
    Show more